Location: General Nathan Twining Observatory
(34.5931°N, 106.8201°W)
Time: 12:56:34
(UTC-06:00)

Daily predictions for brighter satellites

Satellite Brightness Start Highest point End
(mag) Time Altitude Azimuth Time Altitude Azimuth Time Altitude Azimuth
Cosmos 1821 Rocket 4.1 19:51:18 10° S 19:57:24 88° W 20:03:31 10° N
Cosmos 2082 3.8 19:54:07 10° NNW 19:59:41 59° ENE 20:05:12 10° SE
Cosmos 1605 Rocket 4.2 19:54:37 10° SSE 20:00:46 55° E 20:06:50 10° NNE
Cosmos 1455 Rocket 3.0 19:56:37 10° S 20:00:56 78° E 20:05:17 10° N
Cosmos 1892 Rocket 3.7 19:58:25 10° N 20:02:55 89° WNW 20:07:23 10° S
ALOS 3.1 19:59:20 10° SE 20:03:25 31° ENE 20:07:32 10° N
Meteor 1-5 Rocket 4.3 19:59:00 10° S 20:04:20 84° W 20:09:51 10° N
OAO 2 Rocket 3.3 20:02:17 10° W 20:07:16 84° N 20:12:21 10° E
Okean 2 3.5 20:05:49 10° N 20:09:59 84° W 20:14:06 10° S
Cosmos 1602 Rocket 4.2 20:06:33 10° NNE 20:10:37 34° E 20:14:37 10° SE
FREGAT/IRIS 3.9 20:10:03 10° S 20:13:04 45° W 20:16:07 10° NNW
Cosmos 1346 Rocket 2.8 20:10:08 10° N 20:14:07 88° W 20:18:08 10° S
Helios 1B rocket 3.2 20:11:24 10° N 20:15:27 57° WNW 20:19:28 10° SSW
Meteor 1-12 Rocket 4.3 20:11:02 10° S 20:16:41 66° E 20:22:30 10° NNE
METEOR-M 4.2 20:11:49 10° SSE 20:17:10 85° WSW 20:22:32 10° NNW
Tiangong 1 2.8 20:16:29 10° NW 20:19:06 24° NNE 20:21:38 10° ENE
Cosmos 1763 Rocket 4.4 20:18:25 10° SSE 20:22:34 26° E 20:26:43 10° NE
Cosmos 1743 4.1 20:20:17 10° SE 20:23:00 19° E 20:25:49 10° NE
Resurs 1-3 3.6 20:18:58 10° SSE 20:23:21 90° SSE 20:27:45 10° NNW
HJ-1C 4.3 20:22:26 10° S 20:25:36 48° W 20:28:49 10° NNW
Cosmos 1697 Rocket 2.6 20:20:50 10° SSW 20:26:27 74° ESE 20:32:06 10° NNE
Cosmos 2150 Rocket 4.5 20:22:49 10° N 20:27:39 40° ENE 20:31:50 13° SE
Cosmos 2123 Rocket 4.2 20:29:25 10° N 20:35:36 77° W 20:41:46 10° S
Cosmos 1459 Rocket 4.4 20:30:17 10° SSE 20:35:48 39° E 20:41:24 10° NNE
Cosmos 1898 Rocket 3.7 20:32:38 10° N 20:37:49 54° ENE 20:42:03 15° SE
SL-16 R/B 3.6 20:41:43 18° E 20:41:43 18° E 20:44:36 10° ENE
Cosmos 468 Rocket 4.0 20:38:19 10° SSW 20:43:27 84° WNW 20:48:35 10° NNE
Cosmos 841 Rocket 3.8 20:42:53 10° S 20:47:45 41° ESE 20:52:38 10° NNE
Cosmos 1980 Rocket 2.1 20:45:20 10° S 20:50:56 71° ESE 20:56:37 10° NNE
H-2A R/B 2.7 20:48:18 11° SSE 20:52:04 87° WSW 20:56:02 10° NNW
DELTA 2 R/B (1) 3.6 20:46:39 10° WNW 20:52:13 77° SSW 20:55:21 27° ESE
RESURS DK-1 2.6 20:48:35 10° N 20:52:37 49° ENE 20:54:08 32° ESE
CZ-4B DEB 4.5 20:49:54 15° SSE 20:52:48 89° E 20:56:27 10° N
Resurs 01 Rocket 3.6 20:48:56 10° SSW 20:52:49 30° W 20:56:43 10° NW
CZ-4B DEB 4.2 20:52:09 10° S 20:55:14 38° W 20:58:21 10° NNW
Cosmos 1814 Rocket 4.2 20:52:06 10° SSW 20:57:26 75° WNW 21:02:45 10° NNE
FENGYUN 3A 3.9 20:54:54 10° S 21:00:13 69° WSW 21:05:34 10° NNW
Cosmos 1726 Rocket 4.0 21:01:45 36° E 21:02:03 36° E 21:06:05 10° NNE
Cosmos 2263 Rocket 4.1 21:15:42 10° NNE 21:18:16 13° NE 21:18:16 13° NE
Iridium 4 Rocket 4.0 21:14:40 10° NNW 21:19:18 50° W 21:23:33 10° SSW
OTV 4 3.3 21:18:32 10° SW 21:19:06 11° SW 21:19:06 11° SW
Lacrosse 5 1.8 21:14:35 10° NW 21:19:40 85° SW 21:21:09 47° SSE
Cosmos 1825 Rocket 3.4 21:16:23 10° N 21:20:47 70° E 21:21:22 61° SE
Cosmos 1802 Rocket 4.0 21:16:07 10° S 21:22:30 85° E 21:28:58 10° N
Cosmos 1340 2.9 21:19:12 10° N 21:22:27 56° NE 21:22:27 56° NE
SJ-11-01 4.1 21:22:35 48° SSE 21:23:53 81° ENE 21:28:34 10° N
Lacrosse 5 rocket 3.7 21:23:03 10° W 21:24:47 13° WSW 21:26:32 10° SSW
SWAS 4.3 21:21:19 10° SSW 21:25:37 88° ESE 21:29:58 10° NNE
Cosmos 2227 Rocket 4.5 21:21:37 10° NW 21:25:43 21° W 21:29:49 10° SSW
Cosmos 2322 Rocket 2.2 21:25:06 48° SE 21:25:49 51° ESE 21:31:14 10° NNE
SPOT 5 3.8 21:27:02 32° NE 21:27:02 32° NE 21:30:43 10° N
USA 186 3.8 21:25:30 18° SW 21:26:41 23° W 21:29:04 10° NW
Cosmos 2016 Rocket 3.8 21:21:45 14° S 21:27:06 77° E 21:33:17 10° N
Envisat 2.9 21:29:51 58° ESE 21:30:30 65° ENE 21:35:32 10° N
H-2A R/B 3.1 21:32:10 31° NNE 21:32:10 31° NNE 21:34:48 10° N
Cosmos 1953 Rocket 3.5 21:28:41 10° N 21:32:54 68° ENE 21:32:54 68° ENE
CZ-4 DEB 4.2 21:36:07 36° NW 21:36:07 36° NW 21:38:12 10° NNW
Cosmos 1937 Rocket 4.0 21:30:54 10° NNW 21:36:06 59° WSW 21:38:18 33° SSW
Cosmos 2173 Rocket 4.5 21:32:38 10° SSW 21:38:55 61° W 21:45:11 10° N
Meteor 2-9 Rocket 4.0 21:39:17 64° SE 21:39:58 72° E 21:45:21 10° NNE
Cosmos 2297 Rocket 4.3 21:36:10 10° NW 21:40:27 22° W 21:44:43 10° SSW
Nimbus 7 Rocket 4.3 21:37:01 10° NNE 21:43:07 75° ESE 21:45:06 45° S
Cosmos 990 Rocket 4.1 21:38:16 10° NNW 21:43:29 70° WSW 21:44:33 54° SSW
Cosmos 1375 Rocket 4.4 21:37:37 10° SSW 21:44:11 84° ESE 21:50:48 10° NNE
Meteor 1-15 Rocket 4.2 21:44:38 65° SE 21:45:14 71° E 21:51:05 10° NNE
ERS-1 Rocket 3.3 21:48:48 49° SSW 21:49:52 61° WSW 21:54:51 10° NNW
Cosmos 1758 Rocket 4.1 21:47:02 10° N 21:50:24 53° NNW 21:50:24 53° NNW
Cosmos 967 Rocket 4.4 21:45:34 10° NNW 21:51:54 82° WSW 21:52:57 64° S
OAO 2 Rocket 3.5 21:47:05 10° W 21:51:31 62° WSW 21:51:31 62° WSW
Cosmos 2227 4.1 21:48:05 10° NNW 21:53:50 80° WSW 21:54:23 72° SSW
Tiangong 1 4.0 21:52:43 10° WNW 21:53:36 17° WNW 21:53:36 17° WNW
Cosmos 1864 Rocket 4.3 21:54:58 66° S 21:55:55 86° E 22:02:03 10° N
Cosmos 1939 Rocket 3.9 21:59:14 45° WNW 21:59:14 45° WNW 22:02:42 10° NNW
H-2A R/B 4.2 22:06:07 14° NNE 22:06:07 14° NNE 22:07:03 10° NNE
deb Chang Zheng 4 4.5 22:00:42 10° N 22:04:11 47° NNW 22:04:11 47° NNW
Tsikada Rocket 3.9 22:08:52 10° N 22:15:15 85° W 22:15:15 85° W
ARGOS 4.2 22:20:35 37° N 22:20:35 37° N 22:23:56 10° N
SL-16 R/B 2.9 22:23:20 44° WSW 22:24:29 51° WNW 22:30:01 10° N
Cosmos 1125 Rocket 4.4 22:20:56 10° NNW 22:24:35 45° NW 22:24:35 45° NW
BREEZE-M DEB (TANK) 4.3 22:22:49 10° NW 22:37:34 48° NNE 22:37:50 48° NNE
Cosmos 2263 Rocket 3.8 22:57:17 10° NNW 22:59:59 30° NNW 22:59:59 30° NNW
Cosmos 2322 Rocket 4.5 23:06:35 12° W 23:10:08 20° WNW 23:14:09 10° NNW
